Location: Recife
(8.0585°S, 34.8848°W)
Time: 10:38:50
(UTC-03:00)

Courier 1B Rocket - Pass Details

Date: 17 April 2026
Orbit: 920 x 1201 km, 28.2° (Epoch: 13 May)

Event Time Altitude Azimuth Distance (km) Brightness Sun altitude
Rises 02:41:48 0° 312° (NW) 3,541 - -40.0°
Reaches altitude 10° 02:44:28 10° 318° (NW) 2,597 - -39.3°
Maximum altitude 02:50:25 47° 31° (NNE) 1,198 - -37.9°
Exits shadow 02:52:03 39° 71° (ENE) 1,365 6.0 -37.5°
Drops below altitude 10° 02:56:32 10° 104° (ESE) 2,676 8.0 -36.4°
Sets 02:59:20 0° 109° (ESE) 3,658 8.8 -35.7°
